Analise da corrida

 :: S60

Ver o tópico anterior Ver o tópico seguinte Ir em baixo

Analise da corrida

Mensagem por hugueta em Seg Set 11, 2017 8:13 pm

Análise da corrida: Buenos Aires (Argentina) - Época 60 - Corrida 13

Dados das voltas de treino
Volta Tempo volta Erro Piloto Tempo teórico Configurações
AsaD AsaT Motor Trav Caixa Susp Pneus Com.
1 1:28.933s 0.058s 1:28.875s 999 977 628 347 468 751 Médios
Comentários do piloto na volta de treino 1:

Estou satisfeito com a afinação do carro


Informação de voltas e desgaste
Nível das peças
Cha Mot ADiant ATras Carroç Later Refrig Caixa Trav Susp Elec
5 5 6 6 6 6 6 5 5 6 6
Desgaste das Peças (no início)
0% 0% 60% 62% 29% 49% 43% 0% 0% 31% 22%
Desgaste das Peças (no final)
21% 40% 76% 82% 44% 62% 60% 40% 50% 65% 36%
Volta Tempo de volta Pos Pneus Tempo Temp Hum Eventos
0 - 5 Médios Sol 30° 5% -
1 1:34.373 6 Médios Sol 30° 5% -
2 1:30.813 6 Médios Sol 30° 5% -
3 1:30.418 6 Médios Sol 30° 5% -
4 1:30.120 6 Médios Sol 30° 5% -
5 1:30.518 6 Médios Sol 30° 5% -
6 1:29.480 5 Médios Sol 30° 5% -
7 1:28.958 5 Médios Sol 31° 5% -
8 1:28.805 5 Médios Sol 32° 5% -
9 1:28.688 5 Médios Sol 32° 5% -
10 1:29.074 5 Médios Sol 33° 5% -
11 1:28.956 5 Médios Sol 33° 5% -
12 1:29.520 5 Médios Sol 33° 5% -
13 1:28.742 5 Médios Sol 33° 5% -
14 1:29.357 5 Médios Sol 33° 5% -
15 1:29.306 5 Médios Sol 33° 5% -
16 1:28.642 5 Médios Sol 33° 5% -
17 1:28.736 4 Médios Sol 33° 5% -
18 1:29.437 4 Médios Sol 33° 5% -
19 1:28.774 4 Médios Sol 33° 5% -
20 1:28.854 4 Médios Sol 33° 5% -
21 1:28.926 4 Médios Sol 33° 5% -
22 1:28.927 4 Médios Sol 33° 5% -
23 1:29.623 4 Médios Sol 33° 5% -
24 1:40.328 5 Médios Sol 32° 5% Pit
25 2:03.646 13 Médios Sol 32° 5% -
26 1:29.212 9 Médios Sol 31° 5% -
27 1:28.989 9 Médios Sol 30° 5% -
28 1:28.882 9 Médios Sol 30° 5% -
29 1:30.048 8 Médios Sol 30° 5% -
30 1:29.198 7 Médios Sol 30° 5% -
31 1:29.886 7 Médios Sol 30° 5% -
32 1:29.907 7 Médios Sol 30° 5% -
33 1:29.408 7 Médios Sol 30° 5% -
34 1:29.085 6 Médios Sol 30° 5% -
35 1:29.494 5 Médios Sol 29° 5% -
36 1:29.317 5 Médios Sol 29° 5% -
37 1:29.368 4 Médios Sol 29° 5% -
38 1:29.107 4 Médios Sol 29° 5% -
39 1:29.345 4 Médios Sol 29° 5% -
40 1:29.461 4 Médios Sol 29° 4% -
41 1:29.003 4 Médios Sol 28° 3% -
42 1:29.512 4 Médios Sol 28° 3% -
43 1:29.211 4 Médios Sol 28° 3% -
44 1:29.107 4 Médios Sol 28° 3% -
45 1:29.063 4 Médios Sol 28° 3% -
46 1:28.766 4 Médios Sol 28° 3% -
47 1:29.208 4 Médios Sol 28° 3% -
48 1:39.890 6 Médios Sol 28° 3% Pit
49 2:05.143 9 Médios Sol 28° 3% -
50 1:29.151 8 Médios Sol 28° 3% -
51 1:28.940 7 Médios Sol 29° 3% -
52 1:28.867 7 Médios Sol 29° 3% -
53 1:28.647 6 Médios Sol 29° 3% -
54 1:28.714 5 Médios Sol 29° 3% -
55 1:34.735 6 Médios Sol 29° 3% Erro do Piloto
56 1:28.448 6 Médios Sol 29° 3% -
57 1:28.263 6 Médios Sol 30° 3% -
58 1:28.217 6 Médios Sol 30° 3% -
59 1:27.857 6 Médios Sol 31° 3% -
60 1:28.690 6 Médios Sol 31° 3% -
61 1:28.513 6 Médios Sol 31° 3% -
62 1:29.041 6 Médios Sol 31° 3% -
63 1:28.174 6 Médios Sol 31° 3% -
64 1:28.563 6 Médios Sol 31° 3% -
65 1:28.529 6 Médios Sol 31° 3% -
66 1:28.683 6 Médios Sol 31° 3% -
67 1:29.287 6 Médios Sol 30° 3% -
68 1:29.335 6 Médios Sol 29° 3% -
69 1:29.261 6 Médios Sol 29° 3% -
70 1:29.286 7 Médios Sol 29° 3% -
71 1:29.655 7 Médios Sol 28° 3% -
72 1:30.126 7 Médios Sol 28° 3% -

Descarregar a análise da corrida em Excel

Informação da corrida
Voltas
Qualificação 1 Qualificação 2
1:28.556s 1:30.158s

Afinações usadas
Sessão ADiant ATras Mot Trav Caixa Susp Pneus
Q1 999 977 628 347 468 751 Médios
Q2 982 948 650 311 492 787 Médios
Corrida 982 948 650 311 492 787 Médios

Riscos usados
Riscos na partida
Ultrapassar onde for possível
Ultrapassagem Defesa Pista Livre e Seca Pista Livre e Chuva Avaria
18 8 59 59 0

Atributos do piloto
Nome Piloto VG Conc Tal Agre Exper C.Téc Res Car Motiv Rep Peso
Lorenzo Bertaggia 132 223 118 0 134 167 102 145 125 0 50
(+3) (0) (0) (0) (+1) (+1) (0) (0) (+40) (0) (0)

Energia do Piloto
100% 0%

Posições
Início Final
5 7
Carácter do carro
Potência Manobrabilidade Aceleração
71 75 72

Fornecedor de pneus
Pipirelli Pipirelli
Temperatura óptima:
34°
Desempenho em seco:

Desempenho em molhado:

Durabilidade:

Distância de aquecimento:


Tempo da sessão
Treinos / Qualificação 1 Qualificação 2 / Início da corrida
Sol
Temp: 36°C
Humidade: 7% Sol
Temp: 30°C
Humidade: 5%
Previsão para a corrida
Início - 0h30m 0h30m - 1h
Temp: 29° - 33°
Humidade: 3% - 11%
Probabilidade chuva: 0% Temp: 29° - 32°
Humidade: 3% - 12%
Probabilidade chuva: 0%
1h - 1h30m 1h30m - 2h
Temp: 27° - 32°
Humidade: 3% - 12%
Probabilidade chuva: 0% Temp: 25° - 29°
Humidade: 3% - 13%
Probabilidade chuva: 0%


Combustível inicíal: 65 litros

Pit Razão Pit Condição pneus
Combustível restante Reabastecido até Tempos de pit
Paragem 1
(Volta 24) Não havia mais combustível 5% 1% 65 litros 24.279s
Paragem 2
(Volta 48) Não havia mais combustível 8% 1% 65 litros 25.607s

Condição dos pneus no final: 12%

Combustível restante no carro após final: 2 litros

hugueta

Mensagens : 493
Data de inscrição : 30/09/2014
Idade : 40
Localização : Lx

Ver perfil do usuário

Voltar ao Topo Ir em baixo

Re: Analise da corrida

Mensagem por Jorge Frade em Seg Set 18, 2017 6:37 pm

Car wear & lap information
Car parts level
Cha Eng FWing RWing Underb Sidep Cool Gear Bra Susp Elec
5 4 5 5 5 5 5 5 5 5 7
Car parts wear (at the start)
71% 41% 28% 32% 25% 21% 26% 0% 0% 57% 20%
Car parts wear (at the finish)
91% 76% 44% 52% 39% 33% 43% 36% 45% 89% 34%
Lap Lap time Pos Tyres Weather Temp Hum Events
0 - 7 Hard Sunny 30° 5% -
1 1:33.999 4 Hard Sunny 30° 5% -
2 1:30.217 4 Hard Sunny 30° 5% -
3 1:30.340 4 Hard Sunny 30° 5% -
4 1:30.402 4 Hard Sunny 30° 5% -
5 1:30.367 4 Hard Sunny 30° 5% -
6 1:30.400 4 Hard Sunny 30° 5% -
7 1:29.999 4 Hard Sunny 31° 5% -
8 1:30.084 4 Hard Sunny 32° 5% -
9 1:29.989 4 Hard Sunny 32° 5% -
10 1:29.790 4 Hard Sunny 33° 5% -
11 1:29.904 4 Hard Sunny 33° 5% -
12 1:29.553 4 Hard Sunny 33° 5% -
13 1:29.525 4 Hard Sunny 33° 5% -
14 1:29.402 4 Hard Sunny 33° 5% -
15 1:29.614 4 Hard Sunny 33° 5% -
16 1:29.634 4 Hard Sunny 33° 5% -
17 1:29.547 4 Hard Sunny 33° 5% -
18 1:29.262 4 Hard Sunny 33° 5% -
19 1:29.209 4 Hard Sunny 33° 5% -
20 1:38.909 6 Hard Sunny 33° 5% Pit
21 2:02.081 22 Hard Sunny 33° 5% -
22 1:30.293 21 Hard Sunny 33° 5% -
23 1:30.093 20 Hard Sunny 33° 5% -
24 1:30.249 19 Hard Sunny 32° 5% -
25 1:30.259 17 Hard Sunny 32° 5% -
26 1:30.237 13 Hard Sunny 31° 5% -
27 1:31.292 12 Hard Sunny 30° 5% -
28 1:30.692 11 Hard Sunny 30° 5% -
29 1:29.991 11 Hard Sunny 30° 5% -
30 1:30.252 11 Hard Sunny 30° 5% -
31 1:30.014 11 Hard Sunny 30° 5% -
32 1:29.995 11 Hard Sunny 30° 5% -
33 1:29.820 11 Hard Sunny 30° 5% -
34 1:30.035 11 Hard Sunny 30° 5% -
35 1:30.045 11 Hard Sunny 29° 5% -
36 1:30.333 9 Hard Sunny 29° 5% -
37 1:29.673 9 Hard Sunny 29° 5% -
38 1:29.746 8 Hard Sunny 29° 5% -
39 1:32.353 7 Hard Sunny 29° 5% Driver mistake
40 1:29.480 6 Hard Sunny 29° 4% -
41 1:29.596 6 Hard Sunny 28° 3% -
42 1:29.497 6 Hard Sunny 28° 3% -
43 1:29.472 6 Hard Sunny 28° 3% -
44 1:29.373 6 Hard Sunny 28° 3% -
45 1:29.385 6 Hard Sunny 28° 3% -
46 1:39.286 6 Hard Sunny 28° 3% Pit
47 2:04.646 12 Hard Sunny 28° 3% -
48 1:30.470 12 Hard Sunny 28° 3% -
49 1:30.274 12 Hard Sunny 28° 3% -
50 1:30.275 10 Hard Sunny 28° 3% -
51 1:30.838 9 Hard Sunny 29° 3% -
52 1:30.412 9 Hard Sunny 29° 3% -
53 1:30.213 9 Hard Sunny 29° 3% -
54 1:30.984 9 Hard Sunny 29° 3% -
55 1:30.212 8 Hard Sunny 29° 3% -
56 1:29.937 8 Hard Sunny 29° 3% -
57 1:29.816 8 Hard Sunny 30° 3% -
58 1:29.638 8 Hard Sunny 30° 3% -
59 1:29.310 8 Hard Sunny 31° 3% -
60 1:29.528 8 Hard Sunny 31° 3% -
61 1:29.370 8 Hard Sunny 31° 3% -
62 1:29.110 8 Hard Sunny 31° 3% -
63 1:29.002 8 Hard Sunny 31° 3% -
64 1:28.889 8 Hard Sunny 31° 3% -
65 1:30.022 8 Hard Sunny 31° 3% -
66 1:28.911 8 Hard Sunny 31° 3% -
67 1:28.874 8 Hard Sunny 30° 3% -
68 1:29.328 8 Hard Sunny 29° 3% -
69 1:29.738 8 Hard Sunny 29° 3% -
70 1:28.505 8 Hard Sunny 29° 3% -
71 1:28.965 8 Hard Sunny 28° 3% -
72 1:28.815 8 Hard Sunny 28° 3% -
avatar
Jorge Frade
Admin

Mensagens : 1045
Data de inscrição : 22/09/2014

Ver perfil do usuário http://frteam.foruns.com.pt

Voltar ao Topo Ir em baixo

Ver o tópico anterior Ver o tópico seguinte Voltar ao Topo

- Tópicos similares

 :: S60

 
Permissão deste fórum:
Você não pode responder aos tópicos neste fórum